AirNav   Bose A20 Aviation Headset
 
 1286 users online  

48G Gavagan Field Airport
Yale, Michigan, USA

GOING TO YALE?


FAA INFORMATION EFFECTIVE 11 OCTOBER 2018

Location

FAA Identifier: 48G
Lat/Long: 43-06-12.4000N / 082-53-24.8000W
43-06.206667N / 082-53.413333W
43.1034444 / -82.8902222
(estimated)
Elevation: 800 ft. / 244 m (estimated)
Variation: 06W (1985)
From city: 4 miles SW of YALE, MI
Time zone: UTC -4 (UTC -5 during Standard Time)
Zip code: 48097

Airport Operations

Airport use: Open to the public
Activation date: 10/1975
Control tower: no
ARTCC: CLEVELAND CENTER
FSS: LANSING FLIGHT SERVICE STATION
NOTAMs facility: LAN (NOTAM-D service available)
Attendance: IREG
CALL FOR RY COND.
Wind indicator: yes
Segmented circle: no

Airport Communications

CTAF: 122.9
WX AWOS-3P at D95 (17 nm W): 134.050 (810-664-5038)
WX AWOS-3 at PHN (20 nm SE): 118.375 (810-364-7787)

Nearby radio navigation aids

VOR radial/distance  VOR name  Freq  Var
FNTr084/38.5FLINT VORTAC116.9006W

Airport Services

Powerplant service: NONE
Bottled oxygen: NONE
Bulk oxygen: NONE

Runway Information

Runway 14/32

Dimensions: 1986 x 95 ft. / 605 x 29 m
Surface: turf, in fair condition
SOFT WHEN WET.
Runway edge markings: 14/32 THLD & RY 14 DSPLCD THLD MKD WITH TIRES.
RUNWAY 14  RUNWAY 32
Latitude: 43-06.335000N43-06.078333N
Longitude: 082-53.551667W082-53.275000W
Traffic pattern: leftleft
Displaced threshold: 690 ft.no
Runway end identifier lights: nono
Obstructions: 75 ft. tree, 138 ft. from runway, 133 ft. left of centerline, 1:1 slope to clear
+50 FT TREES 0 FT DSTC 100 FT L; APCH RATIO 0:1 AT DSPLCD THLD 20:1 BASED ON STRAIGHT OUT.
65 ft. trees, 63 ft. right of centerline

Airport Ownership and Management from official FAA records

Ownership: Privately-owned
Owner: ROBERT J. GAVAGAN
13989 FULTON ROAD
LYNN, MI 48097
Phone 586-776-6038
Manager: ROBERT J. GAVAGAN
13989 FULTON RD
LYNN, MI 48097
Phone 586-776-6038.

Airport Operational Statistics

Aircraft based on the field: 1
Single engine airplanes: 1
    
Aircraft operations: 100/year *
50% transient general aviation
50% local general aviation
* for 12-month period ending 31 December 2017

Additional Remarks

NO SNOW REMOVAL.
RY 14/32 HAS 2 FT DITCH ADJ TO RY BOTH SIDES.

Instrument Procedures

There are no published instrument procedures at 48G.

Some nearby airports with instrument procedures:

77G - Marlette Airport (15 nm NW)
D95 - Dupont-Lapeer Airport (17 nm W)
D98 - Romeo State Airport (19 nm S)
KPHN - St Clair County International Airport (20 nm SE)
57D - Ray Community Airport (22 nm S)
 
Loc | Ops | Rwys | IFR | FBO | Links
Com | Nav | Svcs | Stats | Notes


 
Area around 48G (Gavagan Field Airport)
 
Road maps at: MapQuest Bing Google
 
Aerial photo
WARNING: Photo may not be current or correct
Aerial photo of 48G (Gavagan Field Airport)
Do you have a better or more recent aerial photo of Gavagan Field Airport that you would like to share? If so, please send us your photo.

 
Sectional chart

 
Airport distance calculator
Flying to Gavagan Field Airport? Find the distance to fly.

From to 48G

Sunrise and sunset
Times for 15-Oct-2018
 Local
(UTC-4)
 Zulu
(UTC)
Morning civil twilight07:1811:18
Sunrise07:4611:46
Sunset18:4922:49
Evening civil twilight19:1723:17

Current date and time
Zulu (UTC)  15-Oct-2018 21:56:58
Local (UTC-4)  15-Oct-2018 17:56:58
 
METAR
KD95 
17nm W 
152135Z AUTO 29015G23KT 10SM CLR 07/M04 A3005 RMK AO2 T00701038
KPHN 
20nm SE 
152135Z AUTO 26009G20KT 220V300 10SM SCT048 08/M02 A3003 RMK AO2
CYZR 
26nm E 
152100Z AUTO 29015G26KT 9SM FEW044 09/M00 A2998 RMK SLP158
KMTC 
29nm S 
152055Z 28015G24KT 10SM FEW045 SCT220 10/00 A3000 RMK AO2A PK WND 26029/22 SLP165 T01000001 53019
KCFS 
32nm NW 
152135Z AUTO 28013G22KT 10SM CLR 06/M06 A3004 RMK AO2 T00621057
TAF
CYZR 
26nm E 
151941Z 1520/1602 28018G28KT P6SM BKN030 FM160000 28018G28KT P6SM SCT030 BECMG 1600/1602 29010G20KT RMK FCST BASED ON AUTO OBS. NXT FCST WILL BE ISSUED AT 160745Z
KMTC 
29nm S 
151700Z 1517/1623 28015G25KT 9999 OVC020 520053 QNH2990INS TEMPO 1519/1521 28025G35KT 510002 BECMG 1523/1524 29009KT 9999 FEW020 520053 QNH3010INS BECMG 1614/1615 23020G30KT 9999 FEW065 510003 QNH3008INS TX13/1518Z TN01/1605Z
NOTAMs
Click for the latest NOTAMs
NOTAMs are issued by the DoD/FAA and will open in a separate window not controlled by AirNav.

 

 
 

Would you like to see your business listed on this page?

 If your business provides an interesting product or service to pilots, flight crews, aircraft, or users of the Gavagan Field Airport, you should consider listing it here.  To start the listing process, click on the button below
 
Add a business
 

Other Pages about Gavagan Field Airport

Page from the Michigan Airport Directory (PDF)
 
Update a link
 
Copyright © AirNav, LLC. All rights reserved. Privacy Policy  Contact